Regional Weather Roundup
Issued by NWS

Home | Current Version | Previous Version | Text Only | Print | Product List | Glossary Off
Versions: 1 2 3 4 5 6 7 8 9 10 11 12 13 14 15 16 17 18 19 20 21 22 23 24 25 26 27 28 29 30 31 32 33 34 35 36 37 38 39 40 41 42 43 44 45 46 47 48 49 50

000
ASUS45 KSLC 301410
RWRUT

UTAH REGIONAL WEATHER ROUNDUP
NATIONAL WEATHER SERVICE SALT LAKE CITY UT
800 AM MDT SAT AUG 30 2014

UTZ001>011-023>025-301500-

NORTHERN UTAH

CITY           SKY/WX    TMP DP  RH WIND       PRES   REMARKS
HILL AFB       CLOUDY    68  45  43 E7        29.97R
LOGAN          SUNNY     55  51  86 NE3       29.93R
OGDEN          PTSUNNY   68  43  40 S12       29.94R
PROVO AIRPORT  PTSUNNY   64  46  52 SE6       29.99S
SALT LAKE CITY PTSUNNY   74  43  32 SE9       29.93R
VERNAL         MOSUNNY   57  49  74 VRB3      30.10S
WENDOVER       CLOUDY    72  36  26 W6        29.94R
HEBER CITY     PTSUNNY   52  46  82 CALM      30.07S
WEST JORDAN    SUNNY     73  48  40 S14       29.97R

$$

UTZ012>022-026-027-301500-

SOUTHERN UTAH

CITY           SKY/WX    TMP DP  RH WIND       PRES   REMARKS
BRYCE CANYON   PTSUNNY   47  40  76 W3        30.28R
CEDAR CITY     MOSUNNY   68  34  28 VRB3      30.10R
MILFORD        PTSUNNY   65  38  36 S7        30.03S
MOAB/CYNLANDS  SUNNY     67  47  48 SE8       30.04S
PRICE          MOSUNNY   61  42  49 NE6       30.13R
ST GEORGE      PTSUNNY   66  39  37 CALM      29.96R

$$

REGIONAL REPORTS     COLORADO/ARIZONA

CITY           SKY/WX    TMP DP  RH WIND       PRES   REMARKS
CRAIG, CO      SUNNY     52  47  83 CALM      30.17S
GRAND JUNCTION MOSUNNY   61  47  59 SE10      30.10S
RIFLE          MOSUNNY   54  47  77 SE7       30.17F
MONTROSE       SUNNY     57  44  62 SE3       30.22R
CORTEZ         SUNNY     54  44  69 CALM      30.20S
PAGE, AZ       PTSUNNY   68  38  33 SW3       30.05R
GRAND CANYON   MOSUNNY   52  43  71 VRB5      30.24S
KINGMAN        CLEAR     75  35  23 SE9       29.97R
FLAGSTAFF      SUNNY     51  42  71 CALM      30.27R

$$

REGIONAL REPORTS    NEVADA/IDAHO/WYOMING

CITY           SKY/WX    TMP DP  RH WIND       PRES   REMARKS
LAS VEGAS, NV  PTCLDY    81  34  18 SW7       29.80R
ELY            CLOUDY    64  32  30 NW5       30.13R
ELKO           PTCLDY    51  38  60 SE3       30.04R
POCATELLO, ID  SUNNY     59  48  67 SW7       29.92R
BURLEY         MOSUNNY   61  46  57 W14G22    29.91R
EVANSTON, WY   SUNNY     56  40  55 SW14      30.11R
ROCK SPRINGS   MOSUNNY   60  39  45 S8        30.09F

$$


USA.gov is the U.S. government's official web portal to all federal, state and local government web resources and services.